Вернуться в каталог

STARLINK-3864

АктивенСвязьVLEO
NORAD 52468·PAYLOAD·🇺🇸 United States

Запущен May 6, 2022 с Cape Canaveral Space Force Station

Loading…

Ближайшие Пролёты (ближайшие 24 часа)

TLE

СвежийSource: CelesTrak SupGP

Эпоха: Sep 15, 2026, 01:08 UTC

1 52468C 22049T   26258.04770833  .00027719  00000+0  81901-3 0  2582
2 52468  53.1586 279.5560 0001233  80.9092 250.4387 15.34375067    17

Отслеживайте STARLINK-3864 в реальном времени с AllMySat

Download on the App Store